Lid_Strength_Index
8 9 9 9 8 8 8 8 8 8 7 7 6 6 6 5 5 4 5 5 5 5 6 6 6 6 5 6 5 5 6 6 10 11 10 10 11 11 11 10 9 10 9
8 9 9 9 9 8 8 8 8 8 8 7 7 6 6 5 4 5 6 5 5 5 6 6 6 5 7 6 6 7 7 6 8 11 11 11 11 11 11 11 11 10 10
9 9 9 9 9 9 8 8 8 8 8 7 7 6 6 5 4 5 6 5 5 4 5 5 6 6 7 7 7 8 7 7 7 10 11 11 11 12 13 13 13 13 12
9 9 9 9 9 8 8 8 8 8 8 8 7 7 6 5 5 5 6 6 5 4 4 4 5 6 6 6 7 7 8 8 9 9 11 12 12 12 12 14 14 15 14
9 9 9 9 9 9 9 9 9 8 8 8 8 7 6 5 5 5 6 7 6 5 5 4 5 7 8 7 7 7 7 9 9 10 11 12 13 14 13 14 14 14 14
10 10 10 10 9 9 9 9 9 9 8 8 8 8 7 6 8 9 7 7 7 6 5 5 7 11 9 9 8 8 7 9 10 10 11 11 12 12 14 13 14 14 14
11 11 10 10 10 9 9 9 9 9 8 8 8 8 8 7 10 10 10 7 7 6 6 7 8 8 9 7 9 9 9 8 8 8 10 10 11 11 12 13 14 14 14
11 11 11 11 10 10 10 10 9 9 9 9 9 8 8 8 11 10 11 7 6 5 6 7 8 8 7 7 8 8 8 8 8 8 8 8 9 10 10 11 12 14 14
10 11 11 11 11 11 10 10 10 10 10 9 9 8 9 9 11 10 9 7 6 6 6 7 7 8 9 9 8 9 9 9 8 8 8 9 9 10 10 12 13 13 14
10 10 10 10 11 11 10 11 11 10 11 10 10 9 11 9 11 11 9 7 7 7 7 7 11 7 9 9 8 10 11 10 10 11 11 10 10 10 11 10 11 12 13
11 11 11 11 11 10 11 12 12 12 12 12 12 11 11 10 11 11 9 8 8 11 11 11 10 9 9 8 8 8 9 10 10 12 12 13 12 12 12 11 11 10 12
12 12 13 13 12 12 12 14 13 13 13 13 12 13 14 12 13 11 9 9 8 11 11 11 10 9 9 8 8 8 9 10 11 12 12 13 13 13 12 12 12 12 13
12 13 13 14 14 13 13 14 14 13 12 12 12 12 13 15 14 10 10 10 10 12 12 11 10 9 9 9 8 8 11 11 11 12 12 12 12 12 12 13 13 12 13
12 13 13 13 14 14 14 13 13 12 12 13 13 13 13 14 14 15 14 12 12 11 12 12 11 10 10 10 12 10 10 10 10 10 11 12 13 13 13 13 13 13 13
13 13 13 13 13 13 13 13 12 12 11 12 12 12 13 14 14 13 13 13 12 12 13 13 13 12 12 12 12 11 11 12 11 12 12 13 13 13 13 13 13 13 13
13 13 13 13 13 13 13 13 12 12 12 12 12 12 15 13 12 12 11 11 11 11 13 13 12 12 12 12 12 12 12 12 12 12 12 13 13 13 13 14 13 13 13
12 13 13 13 13 13 13 13 14 13 12 12 12 12 12 12 12 12 11 11 11 11 13 13 12 12 12 12 12 12 12 12 12 12 12 12 13 13 13 13 13 13 13
12 13 13 13 13 12 12 13 13 14 15 15 13 13 12 12 12 12 11 12 13 12 13 13 12 12 12 12 12 12 12 12 12 13 12 13 13 13 13 13 13 13 13
13 13 13 13 13 13 13 13 14 14 15 15 14 14 14 12 12 12 12 13 13 13 13 13 12 12 12 12 12 12 12 12 12 12 12 12 12 12 13 13 13 13 13
12 12 13 13 13 14 13 14 14 14 15 15 15 15 15 14 14 14 14 13 13 13 13 13 12 12 12 12 12 11 11 11 11 11 11 11 11 11 12 12 12 13 13
12 12 13 13 13 13 13 14 14 15 16 17 18 15 14 14 15 15 15 14 14 14 13 13 12 12 12 11 11 11 11 11 11 11 11 11 11 11 11 11 11 12 12
12 13 13 13 14 14 14 14 15 16 17 17 16 14 14 15 16 16 16 17 17 16 16 13 13 13 13 12 12 12 11 11 11 11 11 11 11 11 11 12 12 12 12
13 14 14 14 14 15 15 15 16 17 17 17 17 17 17 18 18 19 20 20 19 19 19 17 16 17 17 15 14 15 15 15 14 12 12 11 11 11 11 11 11 11 11
14 15 15 16 16 16 16 17 17 17 18 19 20 20 22 23 24 24 25 25 25 26 25 25 24 23 22 22 21 22 23 19 18 16 16 13 12 11 11 11 11 11 11
15 16 16 17 18 18 19 19 19 20 21 21 22 23 24 24 25 27 27 27 27 26 27 27 27 27 25 26 27 28 26 24 25 23 23 21 19 16 12 11 11 11 11
17 18 18 19 20 19 20 20 21 22 23 23 24 24 24 25 26 27 28 28 28 29 30 30 30 29 28 28 28 25 23 21 24 24 26 25 24 21 18 15 13 12 11